IGO301 VABB-OKKK

Flight info

Callsign IGO301
Flight time N/A
Altitude 34000
Route VABB/27 N0451F360 RAXE2A SAKUN V2 SUGID N571 MENSA/N0444F340 N571 IVOXI M557 MITIX/N0447F360 M557 TUMAK M600 KUMBO A453 DEBTI DEBT3C OKKK/33R
Aircraft A321/M-SDFGHIRWY/C

Departure

Time 2026-05-05 19:28
Airport Chhatrapati Shivaji Maharaj International Airport (VABB)

Arrival

Time N/A
Airport Kuwait International Airport (OKKK)
Time Latitude Longitude Altitude Speed Heading
2026-05-05 19:02 19.09229 72.86876 36 ft 0 kts 224°
2026-05-05 19:04 19.09462 72.87053 36 ft 0 kts 154°
2026-05-05 19:16 19.09470 72.87048 36 ft 3 kts 154°
2026-05-05 19:17 19.09487 72.87040 35 ft 3 kts 154°
2026-05-05 19:17 19.09504 72.87031 34 ft 3 kts 169°
2026-05-05 19:17 19.09523 72.87032 34 ft 3 kts 188°
2026-05-05 19:17 19.09541 72.87035 36 ft 3 kts 188°
2026-05-05 19:18 19.09558 72.87041 34 ft 2 kts 230°
2026-05-05 19:18 19.09559 72.87043 34 ft 0 kts 230°
2026-05-05 19:23 19.09559 72.87042 34 ft 0 kts 230°
2026-05-05 19:23 19.09541 72.87021 35 ft 6 kts 230°
2026-05-05 19:23 19.09511 72.86983 36 ft 7 kts 230°
2026-05-05 19:24 19.09468 72.86931 36 ft 16 kts 226°
2026-05-05 19:24 19.09361 72.86882 36 ft 16 kts 137°
2026-05-05 19:24 19.09292 72.86955 34 ft 13 kts 133°
2026-05-05 19:24 19.09237 72.87033 36 ft 13 kts 104°
2026-05-05 19:25 19.09235 72.87131 37 ft 14 kts 88°
2026-05-05 19:25 19.09232 72.87232 37 ft 13 kts 111°
2026-05-05 19:25 19.09160 72.87268 37 ft 12 kts 176°
2026-05-05 19:25 19.09077 72.87270 38 ft 11 kts 173°
2026-05-05 19:26 19.09052 72.87326 38 ft 13 kts 97°
2026-05-05 19:26 19.09055 72.87486 39 ft 24 kts 88°
2026-05-05 19:26 19.09053 72.87661 39 ft 24 kts 89°
2026-05-05 19:26 19.09054 72.87823 40 ft 22 kts 89°
2026-05-05 19:27 19.09055 72.87986 41 ft 22 kts 89°
2026-05-05 19:27 19.09026 72.88047 42 ft 9 kts 153°
2026-05-05 19:27 19.08958 72.88053 40 ft 11 kts 185°
2026-05-05 19:27 19.08891 72.88021 40 ft 11 kts 252°
2026-05-05 19:28 19.08889 72.87903 41 ft 40 kts 270°
2026-05-05 19:28 19.08879 72.87288 40 ft 129 kts 267°
2026-05-05 19:28 19.08856 72.86081 148 ft 190 kts 268°
2026-05-05 19:28 19.08823 72.84584 686 ft 216 kts 269°
2026-05-05 19:29 19.08802 72.82859 1124 ft 252 kts 270°
2026-05-05 19:29 19.08764 72.80923 1644 ft 283 kts 269°
2026-05-05 19:29 19.08695 72.78666 2030 ft 323 kts 268°
2026-05-05 19:29 19.08606 72.76332 2319 ft 320 kts 269°
2026-05-05 19:30 19.08730 72.73944 2617 ft 331 kts 276°
2026-05-05 19:30 19.09015 72.71546 3116 ft 334 kts 277°
2026-05-05 19:30 19.09311 72.69099 3614 ft 336 kts 277°
2026-05-05 19:30 19.09598 72.66641 4119 ft 339 kts 277°
2026-05-05 19:31 19.09879 72.64148 4643 ft 343 kts 276°
2026-05-05 19:31 19.10157 72.61626 5129 ft 346 kts 276°
2026-05-05 19:31 19.10433 72.59087 5638 ft 350 kts 276°
2026-05-05 19:31 19.10711 72.56520 6148 ft 354 kts 276°
2026-05-05 19:32 19.10990 72.53923 6643 ft 357 kts 276°
2026-05-05 19:32 19.11271 72.51298 7124 ft 361 kts 276°
2026-05-05 19:32 19.11556 72.48642 7622 ft 365 kts 276°
2026-05-05 19:32 19.11841 72.45969 8125 ft 369 kts 276°
2026-05-05 19:33 19.12131 72.43255 8637 ft 373 kts 276°
2026-05-05 19:33 19.12423 72.40513 9157 ft 377 kts 277°
2026-05-05 19:33 19.12718 72.37746 9690 ft 380 kts 277°
2026-05-05 19:33 19.13014 72.34955 10169 ft 384 kts 277°
2026-05-05 19:34 19.13313 72.32139 10495 ft 386 kts 277°
2026-05-05 19:34 19.13612 72.29305 10823 ft 389 kts 277°
2026-05-05 19:34 19.13914 72.26454 11154 ft 391 kts 277°
2026-05-05 19:35 19.14518 72.20726 11824 ft 393 kts 277°
2026-05-05 19:35 19.14820 72.17853 12164 ft 394 kts 278°
2026-05-05 19:35 19.15124 72.14965 12510 ft 396 kts 277°
2026-05-05 19:35 19.15470 72.12073 12855 ft 397 kts 281°
2026-05-05 19:36 19.16147 72.09247 13211 ft 397 kts 290°
2026-05-05 19:36 19.17256 72.06579 13570 ft 397 kts 297°
2026-05-05 19:36 19.18523 72.04017 13892 ft 398 kts 299°
2026-05-05 19:36 19.19840 72.01429 14212 ft 399 kts 299°
2026-05-05 19:37 19.21157 71.98839 14533 ft 401 kts 299°
2026-05-05 19:37 19.22475 71.96237 14857 ft 402 kts 299°
2026-05-05 19:37 19.23797 71.93618 15186 ft 402 kts 299°
2026-05-05 19:37 19.25115 71.91002 15516 ft 403 kts 299°
2026-05-05 19:38 19.26436 71.88378 15850 ft 405 kts 299°
2026-05-05 19:38 19.27760 71.85745 16189 ft 405 kts 299°
2026-05-05 19:38 19.29085 71.83107 16528 ft 407 kts 299°
2026-05-05 19:38 19.30419 71.80451 16879 ft 409 kts 299°
2026-05-05 19:39 19.31754 71.77790 17228 ft 411 kts 299°
2026-05-05 19:39 19.33096 71.75115 17583 ft 412 kts 299°
2026-05-05 19:39 19.34429 71.72458 17937 ft 414 kts 299°
2026-05-05 19:39 19.35780 71.69762 18277 ft 415 kts 299°
2026-05-05 19:40 19.37132 71.67062 18584 ft 415 kts 299°
2026-05-05 19:40 19.38485 71.64359 18899 ft 415 kts 299°
2026-05-05 19:40 19.39837 71.61656 19214 ft 415 kts 299°
2026-05-05 19:40 19.41185 71.58961 19532 ft 414 kts 299°
2026-05-05 19:41 19.42527 71.56275 19859 ft 412 kts 299°
2026-05-05 19:41 19.43868 71.53592 20181 ft 411 kts 299°
2026-05-05 19:41 19.45205 71.50914 20513 ft 411 kts 299°
2026-05-05 19:41 19.46546 71.48229 20849 ft 411 kts 299°
2026-05-05 19:42 19.47882 71.45552 21184 ft 412 kts 299°
2026-05-05 19:42 19.49222 71.42864 21528 ft 412 kts 299°
2026-05-05 19:42 19.50563 71.40176 21876 ft 413 kts 299°
2026-05-05 19:42 19.51889 71.37514 22219 ft 414 kts 299°
2026-05-05 19:43 19.53235 71.34813 22577 ft 415 kts 300°
2026-05-05 19:43 19.54353 71.32567 22865 ft 415 kts 300°
2026-05-05 19:43 19.54861 71.31546 23007 ft 416 kts 300°
2026-05-05 19:43 19.56210 71.28836 23369 ft 416 kts 300°
2026-05-05 19:44 19.57565 71.26111 23681 ft 417 kts 299°
2026-05-05 19:44 19.58918 71.23389 23982 ft 417 kts 299°
2026-05-05 19:44 19.60248 71.20646 24286 ft 419 kts 296°
2026-05-05 19:44 19.61369 71.17788 24596 ft 422 kts 292°
2026-05-05 19:45 19.62370 71.14847 24909 ft 424 kts 290°
2026-05-05 19:45 19.63310 71.11866 25226 ft 427 kts 289°
2026-05-05 19:45 19.64225 71.08862 25541 ft 430 kts 289°
2026-05-05 19:45 19.65129 71.05874 25864 ft 432 kts 289°
2026-05-05 19:46 19.66054 71.02832 26191 ft 434 kts 289°
2026-05-05 19:46 19.66992 70.99774 26518 ft 436 kts 289°
2026-05-05 19:46 19.67937 70.96716 26857 ft 437 kts 289°
2026-05-05 19:46 19.68893 70.93640 27196 ft 439 kts 289°
2026-05-05 19:47 19.69853 70.90557 27536 ft 440 kts 289°
2026-05-05 19:47 19.70804 70.87505 27875 ft 441 kts 289°
2026-05-05 19:47 19.71768 70.84412 28224 ft 442 kts 289°
2026-05-05 19:47 19.72731 70.81316 28579 ft 442 kts 289°
2026-05-05 19:48 19.73695 70.78217 28938 ft 443 kts 289°
2026-05-05 19:48 19.74657 70.75118 29309 ft 443 kts 289°
2026-05-05 19:48 19.75622 70.72009 29682 ft 442 kts 289°
2026-05-05 19:48 19.76584 70.68906 30031 ft 442 kts 288°
2026-05-05 19:49 19.77545 70.65805 30345 ft 442 kts 288°
2026-05-05 19:49 19.78183 70.63748 30548 ft 441 kts 288°
2026-05-05 19:49 19.79135 70.60672 30871 ft 441 kts 288°
2026-05-05 19:49 19.80097 70.57562 31195 ft 440 kts 288°
2026-05-05 19:50 19.81052 70.54472 31522 ft 440 kts 288°
2026-05-05 19:50 19.82005 70.51387 31851 ft 439 kts 288°
2026-05-05 19:50 19.83262 70.47315 32288 ft 438 kts 288°
2026-05-05 19:50 19.84210 70.44242 32636 ft 437 kts 288°
2026-05-05 19:51 19.84847 70.42176 32862 ft 436 kts 288°
2026-05-05 19:51 19.85664 70.39080 33210 ft 435 kts 281°
2026-05-05 19:51 19.86043 70.35900 33562 ft 434 kts 272°
2026-05-05 19:51 19.85909 70.32737 33817 ft 436 kts 263°
2026-05-05 19:52 19.85262 70.29591 33845 ft 437 kts 256°
2026-05-05 19:52 19.83443 70.23436 33846 ft 438 kts 253°
2026-05-05 19:53 19.81428 70.17306 33842 ft 439 kts 252°
2026-05-05 19:53 19.79428 70.11171 33846 ft 439 kts 253°
2026-05-05 19:54 19.77464 70.05029 33842 ft 439 kts 253°
2026-05-05 19:54 19.75514 69.98883 33844 ft 439 kts 253°
2026-05-05 19:55 19.73563 69.92737 33849 ft 439 kts 253°
2026-05-05 19:55 19.71621 69.86629 33851 ft 442 kts 253°
2026-05-05 19:56 19.69626 69.80362 33850 ft 452 kts 253°
2026-05-05 19:56 19.67595 69.73999 33851 ft 452 kts 253°
2026-05-05 19:57 19.65590 69.67725 33851 ft 452 kts 253°
2026-05-05 19:57 19.63566 69.61402 33852 ft 452 kts 253°
2026-05-05 19:58 19.61540 69.55078 33851 ft 452 kts 253°
2026-05-05 19:58 19.59514 69.48762 33850 ft 453 kts 252°
2026-05-05 19:59 19.57484 69.42429 33851 ft 454 kts 254°
2026-05-05 19:59 19.56507 69.35867 33852 ft 451 kts 272°
2026-05-05 19:59 19.56861 69.32577 33852 ft 449 kts 283°
2026-05-05 20:00 19.57798 69.29471 33857 ft 448 kts 293°
2026-05-05 20:00 19.60467 69.23481 33853 ft 449 kts 297°
2026-05-05 20:01 19.63359 69.17613 33849 ft 449 kts 297°
2026-05-05 20:01 19.66250 69.11738 33852 ft 450 kts 297°
2026-05-05 20:02 19.69109 69.05828 33854 ft 450 kts 297°
2026-05-05 20:02 19.71947 68.99906 33853 ft 450 kts 296°
2026-05-05 20:03 19.74760 68.94019 33853 ft 450 kts 296°
2026-05-05 20:03 19.77593 68.88092 33855 ft 450 kts 297°
2026-05-05 20:04 19.80423 68.82167 33859 ft 450 kts 296°
2026-05-05 20:04 19.83255 68.76231 33853 ft 450 kts 296°
2026-05-05 20:05 19.86077 68.70311 33850 ft 449 kts 296°
2026-05-05 20:05 19.88893 68.64398 33854 ft 448 kts 296°
2026-05-05 20:06 19.91709 68.58481 33854 ft 448 kts 296°
2026-05-05 20:06 19.94520 68.52566 33853 ft 448 kts 297°
2026-05-05 20:07 19.97333 68.46639 33853 ft 449 kts 296°
2026-05-05 20:07 20.00146 68.40707 33852 ft 449 kts 296°
2026-05-05 20:08 20.02938 68.34814 33848 ft 449 kts 296°
2026-05-05 20:08 20.05746 68.28881 33852 ft 449 kts 296°
2026-05-05 20:09 20.08552 68.22946 33853 ft 448 kts 296°
2026-05-05 20:09 20.11345 68.17031 33850 ft 447 kts 297°
2026-05-05 20:10 20.14135 68.11116 33853 ft 447 kts 297°
2026-05-05 20:10 20.16930 68.05184 33854 ft 447 kts 297°
2026-05-05 20:11 20.19718 67.99263 33852 ft 447 kts 296°
2026-05-05 20:11 20.22508 67.93329 33855 ft 447 kts 296°
2026-05-05 20:12 20.25275 67.87438 33855 ft 448 kts 296°
2026-05-05 20:12 20.28059 67.81504 33853 ft 447 kts 296°
2026-05-05 20:13 20.30841 67.75570 33857 ft 447 kts 296°
2026-05-05 20:13 20.33615 67.69643 33851 ft 446 kts 297°
2026-05-05 20:14 20.36380 67.63732 33855 ft 445 kts 297°
2026-05-05 20:14 20.39141 67.57822 33852 ft 445 kts 297°
2026-05-05 20:15 20.41901 67.51909 33854 ft 445 kts 297°
2026-05-05 20:15 20.44661 67.45988 33850 ft 445 kts 297°
2026-05-05 20:16 20.47402 67.40104 33854 ft 445 kts 297°
2026-05-05 20:16 20.50157 67.34180 33852 ft 446 kts 297°
2026-05-05 20:17 20.52910 67.28255 33849 ft 446 kts 297°
2026-05-05 20:17 20.55662 67.22326 33854 ft 446 kts 297°
2026-05-05 20:18 20.58413 67.16394 33852 ft 446 kts 297°
2026-05-05 20:18 20.61168 67.10444 33853 ft 446 kts 297°
2026-05-05 20:19 20.63903 67.04534 33855 ft 446 kts 297°
2026-05-05 20:19 20.66653 66.98583 33851 ft 446 kts 297°
2026-05-05 20:20 20.69400 66.92633 33852 ft 446 kts 296°
2026-05-05 20:20 20.72146 66.86678 33849 ft 447 kts 296°
2026-05-05 20:21 20.74889 66.80723 33850 ft 447 kts 296°
2026-05-05 20:21 20.77614 66.74800 33851 ft 447 kts 296°
2026-05-05 20:22 20.80358 66.68828 33850 ft 447 kts 297°
2026-05-05 20:22 20.83100 66.62856 33853 ft 447 kts 297°
2026-05-05 20:23 20.85836 66.56889 33847 ft 447 kts 297°
2026-05-05 20:23 20.88568 66.50925 33846 ft 447 kts 297°
2026-05-05 20:24 20.91304 66.44945 33847 ft 447 kts 297°
2026-05-05 20:24 20.94018 66.39006 33846 ft 447 kts 296°
2026-05-05 20:25 20.96750 66.33022 33844 ft 447 kts 296°
2026-05-05 20:25 20.99478 66.27040 33846 ft 447 kts 296°
2026-05-05 20:26 21.02204 66.21055 33845 ft 447 kts 296°
2026-05-05 20:26 21.04912 66.15107 33844 ft 446 kts 297°
2026-05-05 20:27 21.07644 66.09098 33846 ft 446 kts 296°
2026-05-05 20:27 21.10338 66.03162 33846 ft 446 kts 296°
2026-05-05 20:28 21.13075 65.97198 33845 ft 446 kts 297°
2026-05-05 20:28 21.15859 65.91291 33847 ft 446 kts 297°
2026-05-05 20:29 21.18666 65.85358 33843 ft 446 kts 297°
2026-05-05 20:29 21.21467 65.79417 33843 ft 446 kts 297°
2026-05-05 20:30 21.24261 65.73474 33843 ft 446 kts 297°
2026-05-05 20:30 21.27050 65.67532 33842 ft 444 kts 297°
2026-05-05 20:31 21.29801 65.61664 33839 ft 443 kts 297°
2026-05-05 20:31 21.32563 65.55768 33840 ft 444 kts 297°
2026-05-05 20:32 21.35336 65.49843 33842 ft 444 kts 297°
2026-05-05 20:32 21.38103 65.43922 33841 ft 444 kts 297°
2026-05-05 20:33 21.40877 65.37978 33840 ft 444 kts 297°
2026-05-05 20:33 21.43644 65.32046 33841 ft 444 kts 297°
2026-05-05 20:34 21.46392 65.26147 33839 ft 445 kts 297°
2026-05-05 20:34 21.49154 65.20209 33840 ft 444 kts 297°
2026-05-05 20:35 21.51906 65.14286 33836 ft 443 kts 297°
2026-05-05 20:35 21.54652 65.08370 33838 ft 442 kts 297°
2026-05-05 20:36 21.56937 65.03444 33838 ft 442 kts 297°
2026-05-05 20:36 21.59676 64.97529 33834 ft 442 kts 297°
2026-05-05 20:37 21.62419 64.91601 33833 ft 443 kts 297°
2026-05-05 20:37 21.65169 64.85652 33832 ft 443 kts 297°
2026-05-05 20:38 21.67913 64.79707 33832 ft 443 kts 297°
2026-05-05 20:38 21.70654 64.73762 33840 ft 443 kts 297°
2026-05-05 20:39 21.73375 64.67856 33832 ft 442 kts 297°
2026-05-05 20:39 21.76101 64.61929 33831 ft 442 kts 297°
2026-05-05 20:40 21.78827 64.55995 33832 ft 442 kts 297°
2026-05-05 20:40 21.81550 64.50063 33830 ft 442 kts 297°
2026-05-05 20:41 21.84270 64.44130 33830 ft 442 kts 297°
2026-05-05 20:41 21.86967 64.38241 33830 ft 442 kts 297°
2026-05-05 20:42 21.89681 64.32306 33824 ft 442 kts 297°
2026-05-05 20:42 21.92398 64.26361 33833 ft 442 kts 297°
2026-05-05 20:43 21.95105 64.20430 33826 ft 440 kts 296°
2026-05-05 20:43 21.97803 64.14509 33824 ft 440 kts 296°
2026-05-05 20:44 22.00499 64.08585 33823 ft 440 kts 296°
2026-05-05 20:44 22.03196 64.02653 33826 ft 440 kts 296°
2026-05-05 20:45 22.07244 63.93739 33822 ft 441 kts 296°
2026-05-05 20:45 22.09920 63.87837 33824 ft 441 kts 296°
2026-05-05 20:46 22.12615 63.81886 33828 ft 441 kts 296°
2026-05-05 20:46 22.15305 63.75941 33823 ft 440 kts 296°
2026-05-05 20:47 22.17983 63.70013 33825 ft 440 kts 296°
2026-05-05 20:47 22.20659 63.64082 33823 ft 440 kts 296°
2026-05-05 20:48 22.23333 63.58147 33822 ft 440 kts 296°
2026-05-05 20:48 22.26011 63.52199 33823 ft 440 kts 296°
2026-05-05 20:49 22.28684 63.46255 33823 ft 440 kts 296°
2026-05-05 20:49 22.31339 63.40343 33819 ft 441 kts 296°
2026-05-05 20:50 22.34016 63.34375 33820 ft 441 kts 296°
2026-05-05 20:50 22.36686 63.28415 33817 ft 440 kts 296°
2026-05-05 20:51 22.39351 63.22462 33818 ft 440 kts 296°
2026-05-05 20:51 22.41987 63.16564 33815 ft 440 kts 296°
2026-05-05 20:52 22.44621 63.10588 33817 ft 440 kts 295°
2026-05-05 20:52 22.47048 63.04507 33815 ft 441 kts 293°
2026-05-05 20:53 22.49391 62.98415 33817 ft 441 kts 293°
2026-05-05 20:53 22.51758 62.92279 33818 ft 441 kts 293°
2026-05-05 20:54 22.54136 62.86158 33819 ft 441 kts 293°
2026-05-05 20:54 22.56500 62.80085 33817 ft 441 kts 293°
2026-05-05 20:55 22.58878 62.73971 33814 ft 440 kts 293°
2026-05-05 20:55 22.61251 62.67855 33814 ft 440 kts 293°
2026-05-05 20:56 22.63624 62.61733 33814 ft 440 kts 293°
2026-05-05 20:56 22.65993 62.55614 33815 ft 440 kts 293°
2026-05-05 20:57 22.68357 62.49501 33814 ft 441 kts 293°
2026-05-05 20:57 22.70713 62.43401 33815 ft 441 kts 293°
2026-05-05 20:58 22.73074 62.37279 33818 ft 441 kts 293°
2026-05-05 20:58 22.75437 62.31142 33818 ft 441 kts 293°
2026-05-05 20:59 22.77796 62.25009 33815 ft 441 kts 293°
2026-05-05 20:59 22.80154 62.18872 33815 ft 442 kts 293°
2026-05-05 21:00 22.82514 62.12718 33816 ft 442 kts 293°